Location: Shades State Park
(39.9310°N, 87.0690°W)
Time: 14:07:45
(UTC-04:00)

ISS - Visible Passes

Search period start: 27 May 2016 00:00
Search period end: 06 June 2016 00:00
Orbit: 402 x 404 km, 51.6° (Epoch: 27 May)

Date Brightness Start Highest point End Pass type
(mag) Time Alt. Az. Time Alt. Az. Time Alt. Az.
27 May -0.3 00:42:05 10° WNW 00:44:20 17° NNW 00:46:37 10° NNE visible
27 May 0.3 02:21:00 10° NNW 02:21:50 11° N 02:22:41 10° NNE visible
27 May -0.4 03:56:52 10° NNW 03:59:18 19° NNE 04:01:43 10° ENE visible
27 May -3.4 05:32:48 10° NW 05:36:03 76° SW 05:39:18 10° SE visible
27 May -3.1 22:11:39 10° SSW 22:14:48 46° SE 22:17:57 10° ENE visible
27 May -0.9 23:48:38 10° W 23:51:22 24° NNW 23:54:07 10° NNE visible
28 May 0.3 01:27:42 10° NNW 01:28:44 11° N 01:29:46 10° NNE visible
28 May 0.0 03:04:23 10° NNW 03:06:17 14° NNE 03:08:11 10° NE visible
28 May -2.6 04:40:05 10° NW 04:43:18 54° NE 04:46:30 10° ESE visible
28 May -1.7 22:55:24 10° W 22:58:28 37° NNW 23:01:34 10° NE visible
29 May 0.2 00:34:05 10° NW 00:35:38 13° NNW 00:37:11 10° NNE visible
29 May 0.2 02:11:52 10° NNW 02:13:13 12° N 02:14:33 10° NNE visible
29 May -1.4 03:47:29 10° NW 03:50:28 31° NNE 03:53:25 10° E visible
29 May -2.5 05:23:58 10° WNW 05:26:51 29° SW 05:29:44 10° SSE visible
29 May -3.0 22:02:25 10° WSW 22:05:40 70° NW 22:08:55 10° NE visible
29 May -0.1 23:40:29 10° WNW 23:42:35 16° NNW 23:44:42 10° NNE visible
30 May 0.3 01:19:13 10° NNW 01:20:07 11° N 01:21:00 10° NNE visible
30 May -0.7 02:54:57 10° NNW 02:57:32 21° NNE 03:00:06 10° ENE visible
30 May -3.4 04:30:59 10° WNW 04:34:12 61° SW 04:37:25 10° SE visible
30 May -0.6 22:46:59 10° WNW 22:49:35 21° NNW 22:52:12 10° NNE visible
31 May 0.2 00:26:04 10° NNW 00:27:00 11° N 00:27:55 10° NNE visible
31 May -0.2 02:02:28 10° NNW 02:04:31 15° NNE 02:05:59 12° NE visible
31 May -0.5 03:38:13 10° NW 03:38:26 12° NW 03:38:26 12° NW visible
31 May -1.3 21:53:40 10° W 21:56:40 32° NNW 21:59:39 10° NE visible
31 May 0.0 23:32:30 10° NW 23:33:53 12° N 23:35:16 10° NNE visible
01 Jun 0.0 01:09:58 10° NNW 01:11:27 12° N 01:12:58 10° NE visible
01 Jun -0.4 02:45:35 10° NW 02:46:08 14° NW 02:46:08 14° NW visible
01 Jun -0.2 22:38:52 10° NW 22:40:49 15° NNW 22:42:46 10° NNE visible
02 Jun 0.0 00:17:21 10° NNW 00:18:21 11° N 00:19:21 10° NNE visible
02 Jun -0.5 01:53:01 10° NNW 01:54:28 19° N 01:54:28 19° N visible
02 Jun -0.4 21:45:19 10° WNW 21:47:47 19° NNW 21:50:15 10° NNE visible
02 Jun 0.0 23:24:22 10° NNW 23:25:14 11° N 23:26:06 10° NNE visible
03 Jun -0.5 01:00:30 10° NNW 01:02:44 17° NNE 01:03:03 17° NNE visible
03 Jun -0.1 22:30:52 10° NNW 22:32:06 12° N 22:33:20 10° NNE visible
04 Jun -0.3 00:08:00 10° NNW 00:09:41 13° NNE 00:11:20 10° NE visible
04 Jun -0.4 01:43:39 10° NW 01:44:20 15° NW 01:44:20 15° NW visible
04 Jun -0.2 23:15:26 10° NNW 23:16:34 11° N 23:17:42 10° NNE visible
05 Jun -0.9 00:51:03 10° NNW 00:53:07 24° N 00:53:07 24° N visible
05 Jun -0.1 22:22:35 10° NNW 22:23:26 11° N 22:24:17 10° NNE visible
